Location: Barcelona
(41.3830°N, 2.1830°E)
Time: 20:00:04
(UTC+02:00)

ISS - Pass Details

Date: 22 September 2020
Orbit: 419 x 421 km, 51.6° (Epoch: 30 September)

Event Time Altitude Azimuth Distance (km) Brightness Sun altitude
Rises 21:39:50 0° 283° (WNW) 2,364 1.6 -21.4°
Reaches altitude 10° 21:42:27 10° 304° (NW) 1,501 0.1 -21.9°
Maximum altitude 21:44:46 17° 348° (NNW) 1,145 -1.2 -22.3°
Enters shadow 21:45:43 15° 9° (N) 1,214 -1.3 -22.5°
